SCOUT A DEB, 3591

Orbit data source: Space-Track

SCOUT A DEB, 3591 is space debris in LEO originally from a launch on Thu, 19 May 1966 UTC launched from the Air Force Western Test Range (AFWTR). Debris objects in space refer to the collection of defunct objects orbiting the Earth. Examples of debris include non-operational satellites, rocket bodies, and fragments generated from explosions, collisions, or faulty payload assembly.

Loading next visibility...
Identifier
3591, 1966-041E
Orbit
LEO
Country
Flag of USUS
Related business
Manufacturer
Unknown
Mission
Spacecraft
Bus & Motor
Unknown
Mass
Unknown
Launch date (UTC)
1966-05-19 (59 years ago)
Launch vehicle
Unknown
Launch site
Air Force Western Test Range (AFWTR)
Object type
Payload
Rocket body
Debris
Shape & HBR
Unknown
Radar Cross Section
Small (<0.1 m²)

Expand to show TLE details & history
Last TLE update: 18 hours ago

TLE from 18 hours ago
0 SCOUT A DEB
1 03591U 66041E   25260.48204165  .00000282  00000-0  16736-3 0  9998
2 03591  90.2091  75.9985 0085825 275.0075  84.1313 14.03893721 29120
Epoch: 2025-09-17T11:34Z
TLE epoch observation values (Epoch: 2025-09-17T11:34:08.398Z)
Latitude
-0.00005°
Longitude
-94.19385°
Altitude
877.534 km
Speed
7.416 km/s
True Right ascension
05h 03m 59s
True Declination
0° 00' 00"
Sunlit
Object was in daylight at epoch
Visualization orbit readout
Latitude
Unknown
Longitude
Unknown
Altitude
Unknown
Speed
Unknown
Apparent Right ascension
Unknown
Apparent Declination
Unknown
Sunlit
N/A
Visualization observer readout
Local Sidereal Time
22:29:32
Azimuth
Unknown
Elevation
Unknown
Doppler factor
Unknown
Orbital elements
Apogee altitude
939.584 km
Perigee altitude
815.045 km
Semi-major axis
7,255.451 km
Eccentricity
0.00858
Inclination
90.2091°
RAAN
75.9985°
Arg. of periapsis
275.0075°
True anomaly
85.11065°
Mean anomaly
84.1313°
Eccentric anomaly
84.62088°
Mean motion
3.51194 °/min
Orbital period
102.51 mins
BSTAR
0.00016736
Loading maneuver chart data...
Computing Atmospheric mass density...
Loading historical data...
Loading historical data...
Loading historical data...
Loading historical data...
Loading historical data...
Loading historical data...
Loading historical data...

Documentation

Showing up to 5 results
|